| time (UTC) | temp C | wind direction | speed KPH | gust KPH | rain 1hr cm | rain 24hr cm | rain mn cm | humidity % | barometer mb |
| 20260503055004 | 2 | 190 | 3.2 | 9.7 | 0.00 | 0.00 | 0.00 | 72 | 1015.6 |
| 20260503054001 | 2 | 185 | 3.2 | 8.0 | 0.00 | 0.00 | 0.00 | 72 | 1015.8 |
| 20260503053021 | 2 | 161 | 4.8 | 11.3 | 0.00 | 0.00 | 0.00 | 71 | 1015.7 |
| 20260503052033 | 2 | 192 | 4.8 | 9.7 | 0.00 | 0.00 | 0.00 | 70 | 1015.9 |
| 20260503051004 | 2 | 183 | 3.2 | 9.7 | 0.00 | 0.00 | 0.00 | 69 | 1016.0 |
| 20260503050003 | 2 | 188 | 3.2 | 6.4 | 0.00 | 0.00 | 0.00 | 68 | 1016.1 |
| 20260503044957 | 3 | 199 | 3.2 | 6.4 | 0.00 | 0.00 | 0.00 | 67 | 1016.2 |
| 20260503044028 | 3 | 200 | 1.6 | 6.4 | 0.00 | 0.00 | 0.00 | 66 | 1016.2 |
| 20260503043006 | 3 | 197 | 1.6 | 6.4 | 0.00 | 0.00 | 0.00 | 64 | 1016.3 |
| 20260503042014 | 3 | 198 | 1.6 | 4.8 | 0.00 | 0.00 | 0.00 | 63 | 1016.3 |
| 20260503041008 | 3 | 198 | 1.6 | 4.8 | 0.00 | 0.00 | 0.00 | 63 | 1016.4 |
| 20260503040012 | 3 | 198 | 3.2 | 8.0 | 0.00 | 0.00 | 0.00 | 63 | 1016.5 |
| 20260503035015 | 3 | 197 | 3.2 | 8.0 | 0.00 | 0.00 | 0.00 | 63 | 1016.6 |
| 20260503034004 | 3 | 195 | 4.8 | 9.7 | 0.00 | 0.00 | 0.00 | 62 | 1016.7 |
| 20260503033002 | 4 | 203 | 3.2 | 9.7 | 0.00 | 0.00 | 0.00 | 61 | 1016.8 |
| 20260503032003 | 4 | 209 | 3.2 | 8.0 | 0.00 | 0.00 | 0.00 | 60 | 1016.9 |
| 20260503031019 | 4 | 210 | 3.2 | 8.0 | 0.00 | 0.00 | 0.00 | 60 | 1016.9 |
| 20260503030003 | 4 | 211 | 3.2 | 6.4 | 0.00 | 0.00 | 0.00 | 59 | 1017.0 |
| 20260503025024 | 4 | 211 | 3.2 | 6.4 | 0.00 | 0.00 | 0.00 | 58 | 1017.1 |
| 20260503024010 | 4 | 214 | 3.2 | 8.0 | 0.00 | 0.00 | 0.00 | 57 | 1017.1 |
| 20260503023011 | 5 | 209 | 4.8 | 8.0 | 0.00 | 0.00 | 0.00 | 57 | 1017.2 |
| 20260503022007 | 5 | 213 | 4.8 | 8.0 | 0.00 | 0.00 | 0.00 | 56 | 1017.1 |
| 20260503021116 | 5 | 214 | 4.8 | 8.0 | 0.00 | 0.00 | 0.00 | 56 | 1017.3 |
| 20260503020008 | 5 | 250 | 1.6 | 8.0 | 0.00 | 0.00 | 0.00 | 58 | 1017.2 |
| 20260503015001 | 5 | 223 | 3.2 | 8.0 | 0.00 | 0.00 | 0.00 | 51 | 1017.2 |
| 20260503014003 | 5 | 234 | 3.2 | 8.0 | 0.00 | 0.00 | 0.00 | 50 | 1017.2 |
| 20260503013035 | 6 | 240 | 3.2 | 8.0 | 0.00 | 0.00 | 0.00 | 50 | 1017.1 |
| 20260503012028 | 6 | 236 | 3.2 | 8.0 | 0.00 | 0.00 | 0.00 | 49 | 1017.2 |
| 20260503011011 | 6 | 244 | 3.2 | 8.0 | 0.00 | 0.00 | 0.00 | 46 | 1017.2 |
| 20260503010111 | 6 | 254 | 3.2 | 8.0 | 0.00 | 0.00 | 0.00 | 46 | 1017.2 |
| 20260503005021 | 6 | 256 | 1.6 | 4.8 | 0.00 | 0.00 | 0.00 | 47 | 1017.2 |
| 20260503004020 | 7 | 257 | 4.8 | 9.7 | 0.00 | 0.00 | 0.00 | 46 | 1017.3 |
| 20260503003013 | 7 | 279 | 4.8 | 12.9 | 0.00 | 0.00 | 0.00 | 46 | 1017.1 |
| 20260503002007 | 7 | 277 | 6.4 | 14.5 | 0.00 | 0.00 | 0.00 | 45 | 1017.2 |
| 20260503001051 | 7 | 281 | 6.4 | 14.5 | 0.00 | 0.00 | 0.00 | 43 | 1017.2 |
| 20260503000014 | 8 | 248 | 4.8 | 12.9 | 0.00 | 0.00 | 0.00 | 42 | 1017.2 |
| 20260502234959 | 8 | 271 | 9.7 | 16.1 | 0.00 | 0.00 | 0.00 | 40 | 1017.3 |
| 20260502234032 | 9 | 281 | 8.0 | 22.5 | 0.00 | 0.00 | 0.00 | 37 | 1017.3 |
| 20260502233002 | 10 | 294 | 9.7 | 16.1 | 0.00 | 0.00 | 0.00 | 35 | 1017.3 |
| 20260502232002 | 10 | 271 | 6.4 | 16.1 | 0.00 | 0.00 | 0.00 | 36 | 1017.3 |
| 20260502231000 | 10 | 288 | 12.9 | 19.3 | 0.00 | 0.00 | 0.00 | 36 | 1017.4 |
| 20260502230000 | 10 | 313 | 8.0 | 22.5 | 0.00 | 0.00 | 0.00 | 35 | 1017.4 |
| 20260502225005 | 10 | 286 | 11.3 | 22.5 | 0.00 | 0.00 | 0.00 | 34 | 1017.5 |
| 20260502224000 | 10 | 268 | 11.3 | 25.7 | 0.00 | 0.00 | 0.00 | 36 | 1017.6 |
| 20260502222958 | 10 | 315 | 16.1 | 22.5 | 0.00 | 0.00 | 0.00 | 35 | 1017.6 |
| 20260502222002 | 10 | 267 | 11.3 | 29.0 | 0.00 | 0.00 | 0.00 | 36 | 1017.7 |
| 20260502221004 | 10 | 271 | 12.9 | 22.5 | 0.00 | 0.00 | 0.00 | 37 | 1017.7 |
| 20260502220005 | 10 | 304 | 11.3 | 22.5 | 0.00 | 0.00 | 0.00 | 37 | 1017.7 |
| 20260502215050 | 10 | 5 | 11.3 | 25.7 | 0.00 | 0.00 | 0.00 | 36 | 1017.6 |
| 20260502214013 | 10 | 277 | 8.0 | 27.4 | 0.00 | 0.00 | 0.00 | 44 | 1017.7 |
| 20260502213008 | 10 | 294 | 17.7 | 25.7 | 0.00 | 0.00 | 0.00 | 38 | 1017.8 |
| 20260502212003 | 10 | 286 | 17.7 | 30.6 | 0.00 | 0.00 | 0.00 | 41 | 1017.8 |
| 20260502211004 | 10 | 283 | 12.9 | 29.0 | 0.00 | 0.00 | 0.00 | 39 | 1017.8 |
| 20260502210002 | 10 | 278 | 14.5 | 24.1 | 0.00 | 0.00 | 0.00 | 43 | 1017.9 |
| 20260502205010 | 10 | 296 | 14.5 | 32.2 | 0.00 | 0.00 | 0.00 | 44 | 1018.0 |
| 20260502204007 | 10 | 323 | 17.7 | 29.0 | 0.00 | 0.00 | 0.00 | 43 | 1018.1 |
| 20260502203016 | 10 | 277 | 12.9 | 30.6 | 0.00 | 0.00 | 0.00 | 42 | 1018.2 |
| 20260502202021 | 10 | 300 | 9.7 | 37.0 | 0.00 | 0.00 | 0.00 | 40 | 1018.2 |
| 20260502201001 | 10 | 290 | 19.3 | 29.0 | 0.00 | 0.00 | 0.00 | 42 | 1018.4 |
| 20260502200000 | 10 | 288 | 17.7 | 33.8 | 0.00 | 0.00 | 0.00 | 43 | 1018.5 |
| 20260502195012 | 10 | 298 | 22.5 | 37.0 | 0.00 | 0.00 | 0.00 | 41 | 1018.6 |
| 20260502194000 | 10 | 295 | 9.7 | 37.0 | 0.00 | 0.00 | 0.00 | 46 | 1018.6 |
| 20260502193040 | 9 | 262 | 16.1 | 30.6 | 0.00 | 0.00 | 0.00 | 46 | 1018.8 |
| 20260502192006 | 9 | 297 | 19.3 | 33.8 | 0.00 | 0.00 | 0.00 | 42 | 1018.8 |
| 20260502191000 | 8 | 252 | 14.5 | 30.6 | 0.00 | 0.00 | 0.00 | 46 | 1018.8 |
| 20260502190001 | 8 | 279 | 20.9 | 33.8 | 0.00 | 0.00 | 0.00 | 44 | 1019.0 |
| 20260502185002 | 9 | 252 | 14.5 | 27.4 | 0.00 | 0.00 | 0.00 | 45 | 1019.0 |
| 20260502184006 | 9 | 284 | 11.3 | 33.8 | 0.00 | 0.00 | 0.00 | 44 | 1019.2 |
| 20260502183001 | 9 | 254 | 19.3 | 30.6 | 0.00 | 0.00 | 0.00 | 49 | 1019.1 |
| 20260502182012 | 9 | 325 | 12.9 | 30.6 | 0.00 | 0.00 | 0.00 | 46 | 1019.2 |
| 20260502181000 | 10 | 284 | 19.3 | 30.6 | 0.00 | 0.00 | 0.00 | 49 | 1019.2 |
| 20260502164003 | 8 | 304 | 16.1 | 29.0 | 0.00 | 0.00 | 0.00 | 54 | 1019.7 |
| 20260502163100 | 7 | 303 | 9.7 | 24.1 | 0.00 | 0.00 | 0.00 | 52 | 1019.6 |
| 20260502162001 | 7 | 264 | 11.3 | 19.3 | 0.00 | 0.00 | 0.00 | 53 | 1019.8 |
| 20260502161029 | 7 | 283 | 6.4 | 17.7 | 0.00 | 0.00 | 0.00 | 56 | 1019.8 |
| 20260502152000 | 7 | 332 | 9.7 | 19.3 | 0.00 | 0.00 | 0.00 | 53 | 1020.0 |
| 20260502151002 | 7 | 269 | 8.0 | 16.1 | 0.00 | 0.00 | 0.00 | 54 | 1019.8 |
| 20260502123005 | 2 | 351 | 8.0 | 14.5 | 0.00 | 0.00 | 0.00 | 84 | 1020.1 |
| 20260502122010 | 1 | 324 | 6.4 | 9.7 | 0.00 | 0.00 | 0.00 | 85 | 1020.2 |
| 20260502121017 | 1 | 28 | 3.2 | 12.9 | 0.00 | 0.00 | 0.00 | 85 | 1020.1 |
| 20260502114959 | 0 | 338 | 6.4 | 12.9 | 0.00 | 0.00 | 0.00 | 87 | 1020.0 |
| 20260502114005 | 0 | 336 | 6.4 | 8.0 | 0.00 | 0.00 | 0.00 | 88 | 1019.8 |
| 20260502113003 | 0 | 298 | 1.6 | 4.8 | 0.00 | 0.00 | 0.00 | 87 | 1019.7 |
| 20260502111958 | 0 | 298 | 3.2 | 4.8 | 0.00 | 0.00 | 0.00 | 86 | 1019.7 |
| 20260502110957 | -1 | 298 | 3.2 | 4.8 | 0.00 | 0.00 | 0.00 | 85 | 1019.7 |
| 20260502110000 | 0 | 298 | 3.2 | 4.8 | 0.00 | 0.00 | 0.00 | 83 | 1019.7 |
| 20260502105009 | 0 | 298 | 3.2 | 3.2 | 0.00 | 0.00 | 0.00 | 82 | 1019.7 |
| 20260502104008 | 0 | 298 | 1.6 | 4.8 | 0.00 | 0.00 | 0.00 | 80 | 1019.6 |
| 20260502103020 | 0 | 298 | 1.6 | 4.8 | 0.00 | 0.00 | 0.00 | 79 | 1019.7 |
| 20260502102031 | 0 | 298 | 3.2 | 4.8 | 0.00 | 0.00 | 0.00 | 79 | 1019.7 |
| 20260502101005 | 0 | 298 | 1.6 | 6.4 | 0.00 | 0.00 | 0.00 | 78 | 1019.7 |
| 20260502091015 | 1 | 291 | 4.8 | 8.0 | 0.00 | 0.00 | 0.00 | 76 | 1019.2 |
| 20260502071012 | 1 | 303 | 3.2 | 8.0 | 0.00 | 0.00 | 0.00 | 75 | 1019.1 |
| 20260502065959 | 1 | 300 | 4.8 | 8.0 | 0.00 | 0.00 | 0.00 | 76 | 1019.0 |
| 20260502064958 | 1 | 281 | 6.4 | 11.3 | 0.00 | 0.00 | 0.00 | 76 | 1019.1 |
| 20260502063958 | 1 | 288 | 4.8 | 8.0 | 0.00 | 0.00 | 0.00 | 76 | 1019.1 |